This is the latest recevied weather packets stored in our database for station/object AA4OM-2. If no packets are shown the sender has not sent any weather packets the latest 10 day(s).
| Time | Temp. | Humidity | Pressure | Rain* | Wind** | Luminosity | Snow |
|---|---|---|---|---|---|---|---|
| 1777212578 | 20.56° C | 71% | 1014.7 hPa | 0 mm | - | 197 W/m² | - |
| 1777212276 | 20.56° C | 73% | 1014.6 hPa | 0 mm | - | 93 W/m² | - |
| 1777211971 | 20° C | 74% | 1014.5 hPa | 0 mm | - | 65 W/m² | - |
| 1777211666 | 20° C | 74% | 1014.6 hPa | 0 mm | - | 87 W/m² | - |
| 1777211362 | 20° C | 76% | 1014.6 hPa | 0 mm | - | 110 W/m² | - |
| 1777211058 | 18.89° C | 76% | 1014.5 hPa | 0 mm | - | 128 W/m² | - |
| 1777210755 | 18.33° C | 80% | 1014.6 hPa | 0 mm | - | 342 W/m² | - |
| 1777210454 | 18.33° C | 83% | 1014.7 hPa | 0 mm | - | 80 W/m² | - |
| 1777210151 | 17.78° C | 83% | 1014.3 hPa | 0 mm | - | 122 W/m² | - |
| 1777209848 | 17.22° C | 85% | 1014.2 hPa | 0 mm | - | 212 W/m² | - |
| 1777209543 | 16.67° C | 91% | 1014.3 hPa | 0 mm | - | 101 W/m² | - |
| 1777209238 | 16.11° C | 98% | 1014.2 hPa | 0 mm | - | 64 W/m² | - |
| 1777208935 | 15.56° C | 99% | 1014.2 hPa | 0 mm | - | 45 W/m² | - |
| 1777208631 | 15° C | 99% | 1014.2 hPa | 0 mm | - | 66 W/m² | - |
| 1777208327 | 14.44° C | 99% | 1014.1 hPa | 0 mm | - | 55 W/m² | - |
| 1777208024 | 14.44° C | 99% | 1014 hPa | 0 mm | - | 67 W/m² | - |
| 1777207719 | 13.89° C | 99% | 1014 hPa | 0 mm | - | 39 W/m² | - |
| 1777207415 | 13.89° C | 99% | 1014 hPa | 0 mm | - | 37 W/m² | - |
| 1777207114 | 13.89° C | 99% | 1013.9 hPa | 0 mm | - | 36 W/m² | - |
| 1777206811 | 13.33° C | 99% | 1013.6 hPa | 0 mm | - | 36 W/m² | - |
| 1777206510 | 12.78° C | 99% | 1013.6 hPa | 0 mm | - | 37 W/m² | - |
| 1777206206 | 12.78° C | 99% | 1013.6 hPa | 0 mm | - | 32 W/m² | - |
| 1777205901 | 12.78° C | 99% | 1013.3 hPa | 0 mm | - | 31 W/m² | - |
| 1777205598 | 12.22° C | 99% | 1013.3 hPa | 0 mm | - | 29 W/m² | - |
| 1777205295 | 11.67° C | 99% | 1013.6 hPa | 0 mm | - | 28 W/m² | - |
* Rain latest hour (hover to see other rain measurements)
** Current wind speed in m/s (hover to see current wind gust speed)